Volver al catálogo

QIANFAN-210

ActivoComunicacionesPO
NORAD 69809·PAYLOAD·🇨🇳 China

Lanzado Jul 4, 2026 desde Taiyuan Satellite Launch Center

Loading…

Próximos Pases (próximas 24 horas)

TLE

ActualizadoSource: Space-Track

Época: Sep 14, 2026, 21:03 UTC

1 69809U 26153K   26257.87712599 -.01902475  00000-0 -13430+1 0  9990
2 69809  88.9973 352.0834 0010705 337.1443  22.9259 14.01779003 10261

Sigue QIANFAN-210 en tiempo real con AllMySat

Download on the App Store